Location: Doua
(43.8802°N, 5.4199°E)
Time: 17:56:09
(UTC+00:00)

Daily predictions for brighter satellites

Satellite Brightness Start Highest point End
(mag) Time Altitude Azimuth Time Altitude Azimuth Time Altitude Azimuth
H-2A R/B 4.0 19:50:10 10° SSW 19:54:56 31° W 19:59:45 10° NNW
VEP-3 4.4 19:56:04 10° SSW 19:58:56 14° S 20:02:16 10° SE
Cosmos 2322 Rocket 2.3 19:54:45 10° SSW 20:00:22 89° WNW 20:06:01 10° NNE
SPOT 3 Rocket 3.7 19:57:05 10° SSE 20:02:18 80° WSW 20:07:34 10° NNW
NOSS 7 (D) 3.9 19:59:44 10° SSW 20:02:34 52° SE 20:05:14 10° NE
Cosmos 2237 4.4 19:57:34 10° S 20:03:08 55° ESE 20:08:44 10° NNE
OAO 2 Rocket 4.5 19:59:51 10° SW 20:04:12 26° SSE 20:08:34 10° ESE
Cosmos 1455 2.6 20:09:08 10° N 20:12:53 49° ENE 20:16:37 10° SSE
Cosmos 1461 3.8 20:08:23 10° NW 20:13:00 52° WSW 20:17:35 10° SSE
Cosmos 1825 Rocket 4.3 20:11:08 10° SSE 20:15:09 35° E 20:19:14 10° NNE
ATLAS CENTAUR R/B 3.5 20:16:31 10° N 20:18:40 15° NE 20:20:47 10° ENE
Cosmos 1703 3.7 20:16:06 10° SSE 20:19:43 40° E 20:23:23 10° NNE
COSMOS 2428 3.9 20:16:13 10° SSE 20:20:33 23° E 20:24:53 10° NE
Geosat 4.5 20:15:46 10° SSE 20:20:43 59° WSW 20:25:42 10° NW
Cosmos 1812 Rocket 3.5 20:18:49 10° N 20:23:10 87° W 20:27:30 10° S
Cosmos 2322 4.1 20:18:55 10° S 20:24:14 41° ESE 20:29:35 10° NE
Cosmos 1844 4.2 20:18:57 10° NNW 20:24:34 49° ENE 20:29:32 13° SE
Delta 2 Rocket 4.3 20:23:57 10° SW 20:26:32 20° S 20:28:09 15° SE
Cosmos 1602 Rocket 4.1 20:24:07 10° SSW 20:28:29 64° W 20:32:55 10° N
Cosmos 1709 Rocket 4.3 20:25:11 10° SSE 20:31:12 51° E 20:37:18 10° NNE
NOSS 3-3 (A) 4.5 20:27:33 10° S 20:32:40 34° ESE 20:38:17 10° NE
Cosmos 2263 Rocket 4.0 20:28:10 10° NW 20:32:43 26° WSW 20:37:14 10° SSW
NOSS 3-3 (C) 4.5 20:27:40 10° S 20:32:47 34° ESE 20:38:23 10° NE
MetOp-B 4.2 20:28:06 10° SSE 20:33:27 88° ENE 20:38:51 10° NNW
Nadezhda 1 Rocket 4.1 20:27:25 10° N 20:33:52 88° W 20:40:15 10° S
Atlas Centaur 2 3.6 20:29:52 10° SW 20:34:32 24° S 20:38:47 14° SE
Cosmos 2237 Rocket 4.1 20:33:16 10° ESE 20:34:35 11° E 20:35:54 10° E
Terra 3.3 20:31:40 12° ESE 20:35:04 24° ENE 20:38:52 10° NNE
Cosmos 2333 4.4 20:30:36 10° S 20:36:00 50° ESE 20:41:28 10° NE
Cosmos 2219 Rocket 2.8 20:31:30 10° SSE 20:36:28 34° ESE 20:41:28 10° NE
Cosmos 2360 Rocket 2.3 20:32:36 10° SSW 20:38:14 84° WNW 20:43:57 10° NNE
IGS 5A 3.5 20:35:34 13° SSE 20:39:10 71° ENE 20:43:19 10° N
IRIS 4.2 20:39:05 10° WSW 20:42:03 41° S 20:43:18 22° ESE
Cosmos 2333 Rocket 2.5 20:40:50 10° S 20:46:11 45° ESE 20:51:36 10° NE
Resurs 01 Rocket 3.0 20:47:00 10° SSW 20:51:02 35° W 20:55:08 10° NNW
ATLAS 2AS CENTAUR R/B 4.4 20:44:42 10° NNW 20:51:06 27° NNE 20:57:06 10° E
Cosmos 1315 Rocket 4.0 20:48:27 10° N 20:52:06 30° ENE 20:54:13 19° ESE
Cosmos 1818 4.0 20:48:13 10° SW 20:53:37 67° NW 20:59:03 10° NNE
Cosmos-2242 3.0 20:51:21 10° N 20:55:43 88° WSW 20:59:05 17° S
Cosmos 773 Rocket 4.0 20:51:00 10° S 20:56:15 69° ESE 21:01:32 10° NNE
SL-16 R/B 4.3 20:52:36 10° WSW 20:57:30 29° NW 21:02:26 10° N
ERS-1 Rocket 3.1 20:56:51 19° SSE 21:00:26 66° ENE 21:05:27 10° N
Cosmos 2221 4.0 20:57:00 10° NNE 21:00:32 23° ENE 21:02:29 17° ESE
GEOS 3 Rocket 3.8 20:59:12 10° NE 21:04:37 79° NW 21:09:59 10° SW
USA 215 3.2 21:01:27 10° NE 21:08:00 70° SE 21:14:31 10° SW
Cosmos 2278 Rocket 3.4 21:04:21 10° N 21:09:23 31° NE 21:13:09 16° ESE
ATLAS 5 CENTAUR R/B 2.5 21:06:25 10° WSW 21:10:26 49° NW 21:14:57 10° NNE
USA 245 4.1 21:08:35 16° SSW 21:10:51 42° W 21:14:37 10° NNW
Meteor 1-11 4.2 21:05:31 11° S 21:10:52 81° E 21:16:35 10° NNE
Cosmos 1844 Rocket 3.1 21:08:54 10° NNW 21:14:21 57° WSW 21:18:16 19° S
Cosmos 1400 Rocket 3.5 21:11:09 10° NNW 21:15:01 50° W 21:17:41 18° SSW
SPOT 5 2.9 21:13:56 23° SSE 21:17:09 81° ENE 21:22:00 10° N
Lacrosse 5 rocket 4.4 21:17:40 10° NW 21:19:47 13° N 21:21:50 10° NNE
Spot 2 Rocket 4.4 21:16:44 13° SSW 21:21:04 44° W 21:25:57 10° NNW
USA 81 4.0 21:19:52 18° S 21:23:49 88° E 21:29:08 10° N
Cosmos 2058 4.1 21:24:59 25° ESE 21:25:48 27° E 21:29:17 10° NNE
BREEZE M DEB (TANK) 1.5 21:25:28 10° WNW 21:27:39 68° WSW 21:27:39 68° WSW
Cosmos 2181 Rocket 4.0 21:23:40 10° N 21:30:02 84° W 21:34:15 22° S
Cosmos 2074 Rocket 4.1 21:29:16 24° SSE 21:32:58 59° E 21:39:04 10° NNE
SPOT 1/Viking Rocket 4.4 21:31:52 16° SSW 21:35:40 42° W 21:40:36 10° NNW
Cosmos 1076 Rocket 4.4 21:36:08 29° ESE 21:36:59 32° E 21:40:47 10° NNE
Cosmos 1680 Rocket 4.3 21:35:41 29° SE 21:37:11 34° E 21:41:57 10° NE
USA 267 3.7 21:34:04 14° ESE 21:39:41 59° NNE 21:46:06 10° NW
Cosmos 2084 3.5 21:42:04 10° NW 21:46:32 85° NE 21:48:05 41° SE
Cosmos 1842 Rocket 3.4 21:43:09 10° N 21:47:32 86° E 21:49:02 40° SSE
OAO 2 Rocket 4.2 21:43:41 10° WSW 21:48:20 31° S 21:48:29 31° S
JB-3 4.2 21:45:14 10° NNE 21:49:04 68° E 21:49:57 48° SSE
MTI 3.5 21:49:55 10° NNE 21:53:01 87° E 21:53:10 80° S
Cosmos 923 Rocket 4.0 21:52:20 33° S 21:54:35 64° ESE 21:59:49 10° NNE
Cosmos 1825 3.6 21:58:09 23° E 21:58:09 23° E 22:01:00 10° NE
ATLAS CENTAUR R/B 1.0 21:54:19 10° NW 21:57:58 66° WSW 21:58:26 58° SSW
Cosmos 1980 3.7 21:56:55 33° S 21:59:23 61° ESE 22:04:57 10° NNE
ALOS 2 4.5 21:58:03 16° E 21:59:32 19° ENE 22:02:37 10° NNE
Cosmos 967 Rocket 4.4 21:55:33 12° SSW 22:01:35 83° ESE 22:08:05 10° NE
COSMOS 2428 3.3 21:58:50 10° SW 22:04:22 55° WNW 22:09:58 10° NNE
Cosmos 1869 3.5 22:04:30 10° NNW 22:08:27 66° W 22:09:23 48° SSW
NOSS 0 Rocket 3.8 22:07:31 22° SSW 22:11:43 89° ESE 22:17:55 10° NNE
Terra 2.7 22:10:34 27° SSW 22:12:35 40° W 22:17:04 10° NNW
Cosmos 1610 Rocket 4.5 22:11:20 34° S 22:14:20 80° E 22:20:43 10° N
NOSS 3-4 (A) 4.1 22:08:16 10° NNW 22:15:13 64° NE 22:19:47 26° ESE
NOSS 3-4 (C) 4.1 22:08:23 10° NNW 22:15:20 64° NE 22:19:55 26° ESE
Cosmos 2237 Rocket 2.1 22:14:58 33° SSW 22:17:38 79° ESE 22:23:22 10° NNE
Genesis I 3.2 22:18:36 61° ESE 22:18:36 61° ESE 22:22:16 10° NE
Cosmos 2344 3.5 22:16:02 27° S 22:20:13 60° ESE 22:27:53 10° NE
Cosmos 2219 Rocket 3.5 22:15:10 10° SW 22:20:20 37° NW 22:25:33 10° NNE
Elektron 1 4.2 22:21:21 56° SW 22:21:59 81° NW 22:26:49 10° NE
BREEZE-M R/B 4.1 22:13:32 10° WNW 22:22:18 46° SW 22:23:36 39° S
Atlas Centaur 2 4.0 22:18:00 10° WSW 22:21:21 20° SSW 22:21:21 20° SSW
DELTA 2 R/B (1) 3.7 22:23:30 10° WSW 22:28:52 49° S 22:30:03 42° SE
Cosmos 2333 Rocket 3.9 22:25:36 10° WSW 22:30:36 31° NW 22:35:40 10° N
Thor Agena Rocket 3.4 22:26:41 10° NNE 22:31:50 82° ESE 22:33:18 47° S
Cosmos 2221 3.8 22:34:15 10° NNW 22:38:08 32° W 22:39:20 27° WSW
BREEZE-M DEB (TANK) 2.6 22:37:35 10° WNW 22:41:08 39° N 22:41:22 38° NNE
Iridium 2 3.6 22:38:32 10° N 22:42:21 75° W 22:42:26 74° WSW
Cosmos 1892 3.8 22:41:59 31° WSW 22:42:48 35° WNW 22:46:20 10° N
Cosmos 1371 Rocket 4.0 22:37:37 10° NNW 22:42:54 83° ENE 22:44:15 52° SSE
ATLAS 2AS CENTAUR R/B 2.8 22:35:39 10° NW 22:43:15 83° NE 22:46:25 36° SE
Cosmos 1766 Rocket 3.9 22:44:24 48° E 22:44:34 48° E 22:48:49 10° NNE
EO 1 Del DPAF 3.1 22:41:05 10° N 22:44:51 75° WNW 22:44:59 74° W
MOS 1-B Rocket 4.3 22:39:09 10° NNE 22:46:52 90° ESE 22:49:57 36° SSW
Okean 3 Rocket 3.6 22:47:03 59° ESE 22:47:21 61° E 22:51:45 10° NNE
Aureole 2 Rocket 3.7 22:47:10 10° N 22:48:59 30° NNE 22:48:59 30° NNE
Cosmos 1328 Rocket 4.2 22:45:57 10° N 22:50:01 40° ENE 22:50:25 39° E
Cosmos 2112 Rocket 4.3 22:48:24 34° SW 22:50:40 66° WNW 22:56:01 10° NNE
USA 215 4.3 22:44:37 10° NE 22:50:49 46° NNW 22:56:59 10° W
Cosmos 1606 3.1 22:48:35 10° N 22:52:19 52° ENE 22:52:19 52° ENE
Cosmos 2218 Rocket 4.3 22:50:54 40° SE 22:52:47 53° E 22:58:54 10° NNE
Cosmos 2278 Rocket 2.8 22:48:15 10° NW 22:53:35 43° WSW 22:54:59 37° SW
Cosmos 158 Rocket 4.4 22:52:57 32° SW 22:54:55 53° WNW 22:59:44 10° NNE
Cosmos 2297 4.1 22:49:30 10° NNW 22:55:11 58° ENE 22:57:11 38° ESE
Cosmos 2366 rocket 4.3 22:56:35 42° SE 22:58:28 56° E 23:04:39 10° NNE
Cosmos 1420 Rocket 4.5 22:53:54 10° NNW 22:59:05 53° ENE 23:00:36 40° ESE
Spot 4 4.1 22:59:07 49° SW 22:59:56 56° W 23:04:38 10° NNW
Lacrosse 5 rocket 4.1 22:57:46 10° NNW 23:00:23 16° NNE 23:02:54 10° ENE
Cosmos 1943 Rocket 3.5 22:56:32 10° N 23:01:40 33° NE 23:04:40 21° ESE
SL-16 R/B 2.2 23:00:46 52° SSE 23:01:58 67° ESE 23:07:37 10° NNE
Cosmos 1408 3.9 23:03:24 30° W 23:03:39 31° WNW 23:06:53 10° NNW
Cosmos 2056 Rocket 3.6 23:01:26 10° NNW 23:06:51 73° WSW 23:07:58 55° S
Cosmos 1959 Rocket 4.5 23:06:20 47° SSE 23:08:03 68° E 23:14:13 10° NNE
Cosmos 2341 Rocket 4.1 23:11:47 40° SSW 23:14:05 68° W 23:20:19 10° N
Cosmos 332 Rocket 4.3 23:15:45 10° N 23:20:27 50° ENE 23:21:28 43° ESE
Meteor 2-3 Rocket 3.7 23:21:02 53° SSE 23:22:14 70° E 23:27:56 10° NNE
USA 267 3.5 23:21:24 42° SSW 23:22:46 48° SW 23:29:05 10° WNW
IRIDIUM 104 4.3 23:23:26 59° SSW 23:24:27 81° W 23:29:42 10° N
Cosmos 2151 3.9 23:23:52 36° W 23:24:32 38° WNW 23:28:33 10° N
Helios 1A 3.1 23:24:53 63° E 23:25:04 64° ENE 23:29:12 10° N
Cosmos 405 4.2 23:26:12 10° N 23:29:08 35° ENE 23:29:08 35° ENE
SL-8 Rocket 4.1 23:30:58 42° SW 23:33:03 65° W 23:39:12 10° N
Cosmos 1825 4.0 23:32:56 22° W 23:33:22 23° WNW 23:36:26 10° NNW
IRIDIUM 114 4.4 23:32:35 53° SW 23:33:38 67° W 23:38:50 10° N
Meteor 1-26 Rocket 4.3 23:27:42 10° N 23:33:45 83° E 23:35:20 52° SSE
Cosmos 1452 Rocket 3.6 23:28:39 10° NNW 23:33:56 71° ENE 23:35:06 52° SE
Cosmos 1340 2.9 23:34:23 66° NNW 23:34:23 66° NNW 23:37:47 10° N
CZ-4C R/B 4.0 23:27:53 10° NNW 23:34:30 41° NE 23:42:03 10° ESE
ALOS 2 3.1 23:35:27 45° WSW 23:35:31 45° W 23:39:45 10° NNW
COSMOS 2455 3.2 23:29:42 10° NNW 23:35:42 61° NE 23:38:24 33° ESE
Cosmos 1408 Rocket 3.4 23:35:56 77° WSW 23:36:07 79° W 23:40:33 10° N
PSLV R/B 4.4 23:32:47 10° NNE 23:36:34 36° E 23:36:34 36° E
Cosmos 1603 4.5 23:36:25 34° ESE 23:37:04 35° ESE 23:42:12 10° NE
Cosmos 1933 3.6 23:34:30 10° NNW 23:38:13 57° WNW 23:38:13 57° WNW
Cosmos 1151 Rocket 3.3 23:35:47 10° NNW 23:40:01 54° W 23:40:03 54° W
Cosmos 44 3.8 23:43:38 36° W 23:44:47 46° NW 23:49:03 10° NNE
Cosmos 1500 Rocket 3.6 23:44:49 62° ESE 23:44:56 62° E 23:49:17 10° NNE
Cosmos 1727 Rocket 3.9 23:39:57 10° N 23:46:13 90° WSW 23:48:04 49° S
Cosmos 2369 Rocket 2.8 23:40:55 10° NNW 23:46:21 50° ENE 23:48:49 30° ESE
Resurs 1-4 Rocket 4.4 23:45:10 10° ENE 23:46:56 12° E 23:48:43 10° ESE
GP-B 4.0 23:44:15 10° NNW 23:48:21 37° W 23:48:50 36° W
SL-08 R/B 4.5 23:46:43 48° S 23:48:42 88° E 23:55:10 10° N
Cosmos 371 Rocket 3.3 23:45:20 10° NNW 23:50:09 61° WSW 23:50:25 60° SW
SeaSat 1 4.2 23:47:51 10° ENE 23:51:11 18° ESE 23:51:20 18° ESE
Helios 1B rocket 2.9 23:51:31 10° NNE 23:55:23 47° E 23:55:23 47° E
